When you browse on this site, cookies collect data to enhance your experience and personalize the content and advertising you see.
Visit our Privacy Policy to learn more. By continuing to use the site, you agree to this use of cookies and data.
  • In Netherlands
  • List of Countries
  • For 7 days
  • Water Temperature
  • Satellite Maps
  • Weather Map
  • Weather Widgets
  • user-avatar
    Login

    Hourly Weather Perth

    Today, 18 June, Tuesday

    Time Temperature Precipitation Wind Pressure Humidity
    00:00 +10°C° 0 mm 2 mps 770 mmHg 64%
    01:00 +10°C° 0 mm 2 mps 769 mmHg 64%
    02:00 +9°C° 0 mm 2 mps 769 mmHg 65%
    03:00 +9°C° 0 mm 2 mps 769 mmHg 66%
    04:00 +9°C° 0 mm 2 mps 769 mmHg 67%
    05:00 +9°C° 0 mm 2 mps 769 mmHg 68%
    06:00 +9°C° 0 mm 2 mps 769 mmHg 68%
    07:00 +9°C° 0 mm 2 mps 769 mmHg 69%
    08:00 +9°C° 0 mm 2 mps 769 mmHg 68%
    09:00 +12°C° 0 mm 1 mps 769 mmHg 63%
    10:00 +13°C° 0 mm 1 mps 769 mmHg 58%
    11:00 +15°C° 0 mm 1 mps 769 mmHg 53%
    12:00 +16°C° 0 mm 1 mps 768 mmHg 51%
    13:00 +18°C° 0 mm 1 mps 767 mmHg 50%
    14:00 +18°C° 0 mm 1 mps 767 mmHg 48%
    15:00 +17°C° 0 mm 2 mps 767 mmHg 51%
    16:00 +16°C° 0 mm 2 mps 767 mmHg 55%
    17:00 +15°C° 0 mm 2 mps 767 mmHg 58%
    18:00 +14°C° 0 mm 2 mps 767 mmHg 62%
    19:00 +13°C° 0 mm 2 mps 767 mmHg 67%
    20:00 +12°C° 0 mm 2 mps 767 mmHg 71%
    21:00 +12°C° 0 mm 2 mps 767 mmHg 71%
    22:00 +12°C° 0 mm 2 mps 767 mmHg 71%
    23:00 +10°C° 0 mm 2 mps 767 mmHg 71%

    Tomorrow, 19 June, Wednesday

    Time Temperature Precipitation Wind Pressure Humidity
    00:00 +10°C° 0 mm 2 mps 767 mmHg 70%
    01:00 +10°C° 0 mm 2 mps 767 mmHg 70%
    02:00 +9°C° 0 mm 2 mps 767 mmHg 69%
    03:00 +9°C° 0 mm 2 mps 767 mmHg 69%
    04:00 +9°C° 0 mm 3 mps 766 mmHg 69%
    05:00 +9°C° 0 mm 3 mps 766 mmHg 69%
    06:00 +9°C° 0 mm 3 mps 766 mmHg 69%
    07:00 +9°C° 0 mm 3 mps 766 mmHg 69%
    08:00 +9°C° 0 mm 3 mps 767 mmHg 69%
    09:00 +11°C° 0 mm 3 mps 767 mmHg 63%
    10:00 +13°C° 0 mm 3 mps 766 mmHg 58%
    11:00 +16°C° 0 mm 3 mps 766 mmHg 53%
    12:00 +17°C° 0 mm 3 mps 766 mmHg 50%
    13:00 +18°C° 0 mm 3 mps 765 mmHg 47%
    14:00 +18°C° 0 mm 2 mps 764 mmHg 44%
    15:00 +18°C° 0 mm 2 mps 764 mmHg 47%
    16:00 +17°C° 0 mm 2 mps 764 mmHg 50%
    17:00 +16°C° 0 mm 2 mps 764 mmHg 53%
    18:00 +15°C° 0 mm 2 mps 764 mmHg 55%
    19:00 +14°C° 0 mm 2 mps 764 mmHg 56%
    20:00 +13°C° 0 mm 2 mps 764 mmHg 57%
    21:00 +13°C° 0 mm 2 mps 765 mmHg 58%
    22:00 +11°C° 0 mm 3 mps 765 mmHg 58%
    23:00 +11°C° 0 mm 3 mps 765 mmHg 58%

    Day after tomorrow, 20 June, Thursday

    Time Temperature Precipitation Wind Pressure Humidity
    00:00 +11°C° 0 mm 3 mps 764 mmHg 57%
    01:00 +11°C° 0 mm 4 mps 764 mmHg 56%
    02:00 +11°C° 0 mm 4 mps 764 mmHg 55%
    03:00 +10°C° 0 mm 5 mps 764 mmHg 54%
    04:00 +10°C° 0 mm 5 mps 764 mmHg 52%
    05:00 +10°C° 0 mm 5 mps 763 mmHg 51%
    06:00 +10°C° 0 mm 5 mps 763 mmHg 51%
    07:00 +10°C° 0 mm 5 mps 763 mmHg 51%
    08:00 +10°C° 0 mm 5 mps 763 mmHg 51%
    09:00 +12°C° 0 mm 5 mps 763 mmHg 50%
    10:00 +13°C° 0 mm 5 mps 763 mmHg 50%
    11:00 +14°C° 0 mm 5 mps 763 mmHg 49%
    12:00 +15°C° 0 mm 5 mps 762 mmHg 49%
    13:00 +17°C° 0 mm 4 mps 761 mmHg 49%
    14:00 +18°C° 0 mm 4 mps 761 mmHg 49%
    15:00 +18°C° 0 mm 4 mps 761 mmHg 51%
    16:00 +17°C° 0 mm 4 mps 761 mmHg 53%
    17:00 +17°C° 0 mm 3 mps 760 mmHg 55%
    18:00 +17°C° 0 mm 3 mps 760 mmHg 54%
    19:00 +15°C° 0 mm 4 mps 760 mmHg 54%
    20:00 +15°C° 0 mm 4 mps 760 mmHg 54%
    21:00 +15°C° 0 mm 4 mps 760 mmHg 56%
    22:00 +15°C° 0 mm 4 mps 760 mmHg 58%
    23:00 +14°C° 0 mm 4 mps 760 mmHg 59%

    21 June, Friday

    Time Temperature Precipitation Wind Pressure Humidity
    00:00 +14°C° 0 mm 3 mps 759 mmHg 61%
    01:00 +14°C° 0 mm 3 mps 759 mmHg 62%
    02:00 +13°C° 0 mm 3 mps 759 mmHg 64%
    03:00 +13°C° 0 mm 3 mps 759 mmHg 66%
    04:00 +14°C° 0 mm 2 mps 759 mmHg 68%
    05:00 +13°C° 0 mm 2 mps 758 mmHg 69%
    06:00 +13°C° 0 mm 2 mps 759 mmHg 70%
    07:00 +13°C° 0 mm 2 mps 759 mmHg 70%
    08:00 +13°C° 0 mm 2 mps 759 mmHg 71%
    09:00 +15°C° 0 mm 2 mps 759 mmHg 65%
    10:00 +17°C° 0 mm 2 mps 759 mmHg 59%
    11:00 +19°C° 0 mm 2 mps 759 mmHg 53%
    12:00 +20°C° 0 mm 2 mps 758 mmHg 53%
    13:00 +21°C° 0 mm 3 mps 758 mmHg 53%
    14:00 +21°C° 0 mm 3 mps 757 mmHg 52%
    15:00 +20°C° 0 mm 3 mps 757 mmHg 57%
    16:00 +20°C° 0 mm 2 mps 758 mmHg 61%
    17:00 +19°C° 0 mm 2 mps 758 mmHg 66%
    18:00 +18°C° 0 mm 2 mps 758 mmHg 70%
    19:00 +17°C° 0 mm 2 mps 758 mmHg 73%
    20:00 +16°C° 0 mm 2 mps 759 mmHg 77%
    21:00 +16°C° 0 mm 2 mps 758 mmHg 78%
    22:00 +16°C° 0 mm 2 mps 758 mmHg 79%
    23:00 +15°C° 0 mm 2 mps 758 mmHg 80%

    22 June, Saturday

    Time Temperature Precipitation Wind Pressure Humidity
    00:00 +15°C° 0 mm 2 mps 758 mmHg 81%
    01:00 +14°C° 0 mm 3 mps 758 mmHg 82%
    02:00 +14°C° 0 mm 3 mps 757 mmHg 83%
    03:00 +14°C° 0 mm 3 mps 757 mmHg 82%
    04:00 +14°C° 0 mm 3 mps 756 mmHg 81%
    05:00 +14°C° 0 mm 4 mps 756 mmHg 80%
    06:00 +14°C° 0 mm 4 mps 756 mmHg 78%
    07:00 +14°C° 0 mm 4 mps 756 mmHg 75%
    08:00 +14°C° 0 mm 4 mps 755 mmHg 72%
    09:00 +16°C° 0 mm 6 mps 755 mmHg 70%
    10:00 +18°C° 0 mm 7 mps 755 mmHg 67%
    11:00 +20°C° 0 mm 8 mps 754 mmHg 65%
    12:00 +20°C° 0.1 mm 8 mps 753 mmHg 66%
    13:00 +21°C° 0.1 mm 8 mps 752 mmHg 68%
    14:00 +21°C° 0.1 mm 9 mps 751 mmHg 70%
    15:00 +19°C° 5.1 mm 9 mps 751 mmHg 76%
    16:00 +18°C° 5.1 mm 9 mps 752 mmHg 83%
    17:00 +17°C° 5.1 mm 9 mps 752 mmHg 89%
    18:00 +17°C° 5.2 mm 8 mps 752 mmHg 90%
    19:00 +17°C° 5.2 mm 7 mps 752 mmHg 91%
    20:00 +17°C° 5.2 mm 6 mps 752 mmHg 91%
    21:00 +17°C° 0.3 mm 5 mps 752 mmHg 88%
    22:00 +17°C° 0.3 mm 4 mps 753 mmHg 84%
    23:00 +17°C° 0.3 mm 3 mps 753 mmHg 81%

    23 June, Sunday

    Time Temperature Precipitation Wind Pressure Humidity
    00:00 +16°C° 0.2 mm 3 mps 753 mmHg 81%
    01:00 +16°C° 0.2 mm 3 mps 754 mmHg 82%
    02:00 +16°C° 0.2 mm 3 mps 754 mmHg 83%
    03:00 +14°C° 0.2 mm 3 mps 754 mmHg 82%
    04:00 +14°C° 0.2 mm 4 mps 754 mmHg 82%
    05:00 +14°C° 0.2 mm 4 mps 754 mmHg 81%
    06:00 +14°C° 0 mm 4 mps 754 mmHg 81%
    07:00 +14°C° 0 mm 4 mps 755 mmHg 80%
    08:00 +14°C° 0 mm 5 mps 755 mmHg 80%
    09:00 +15°C° 0.2 mm 6 mps 755 mmHg 77%
    10:00 +16°C° 0.2 mm 6 mps 755 mmHg 74%
    11:00 +17°C° 0.2 mm 7 mps 756 mmHg 72%
    12:00 +18°C° 0.3 mm 8 mps 755 mmHg 69%
    13:00 +18°C° 0.3 mm 8 mps 755 mmHg 66%
    14:00 +18°C° 0.3 mm 9 mps 755 mmHg 63%
    15:00 +18°C° 0.2 mm 8 mps 756 mmHg 65%
    16:00 +17°C° 0.2 mm 8 mps 756 mmHg 68%
    17:00 +17°C° 0.2 mm 7 mps 757 mmHg 70%
    18:00 +16°C° 0.2 mm 7 mps 757 mmHg 70%
    19:00 +16°C° 0.2 mm 6 mps 758 mmHg 69%
    20:00 +16°C° 0.2 mm 6 mps 758 mmHg 68%
    21:00 +15°C° 0.1 mm 5 mps 759 mmHg 70%
    22:00 +15°C° 0.1 mm 5 mps 760 mmHg 71%
    23:00 +15°C° 0.1 mm 4 mps 760 mmHg 73%
    Show more